Regional Weather Roundup
Issued by NWS

Home | Current Version | Previous Version | Text Only | Print | Product List | Glossary Off
Versions: 1 2 3 4 5 6 7 8 9 10 11 12 13 14 15 16 17 18 19 20 21 22 23 24 25 26 27 28 29 30 31 32 33 34 35 36 37 38 39 40 41 42 43 44 45 46 47 48 49 50

000
ASUS45 KTFX 270610
RWRMT
MONTANA REGIONAL WEATHER ROUNDUP
NATIONAL WEATHER SERVICE GREAT FALLS MT
1200 AM MDT SAT AUG 27 2016

NOTE: "FAIR" INDICATES FEW OR NO CLOUDS BELOW 12000 FEET WITH NO
SIGNIFICANT WEATHER AND/OR OBSTRUCTIONS TO VISIBILITY.

MTZ001>007-043-270700-
WEST OF THE DIVIDE

CITY           SKY/WX    TMP DP  RH WIND       PRES   REMARKS
KALISPELL      MOCLDY    54  45  71 N8        29.87F
MISSOULA       CLOUDY    61  40  45 CALM      29.94S
BUTTE          PTCLDY    48  30  49 CALM      30.06S
MULLAN PASS    CLOUDY    59  30  33 VRB6      30.04F
DEER LODGE       N/A     48  34  57 CALM      30.03F
EUREKA           N/A     70  41  35 SE5       29.84F
HAMILTON         N/A     55  39  54 CALM      29.96F
LIBBY            N/A     63  37  39 CALM      29.85F
PLAINS           N/A     58  39  49 MISG      29.90S
RONAN            N/A     55  43  64 NE2       29.95F
$$

MTZ008-052>055-270700-
SOUTHWEST MONTANA

CITY           SKY/WX    TMP DP  RH WIND       PRES   REMARKS
BOZEMAN        CLEAR     46  37  71 SE7       30.00F
DILLON         CLEAR     53  29  39 SW7       30.02S
W YELLOWSTONE  CLEAR     43  27  52 CALM      30.12S
ENNIS          CLEAR     46  28  49 CALM      30.08S
THREE FORKS      N/A     49  17  28 CALM      29.98F
TWIN BRIDGES     N/A     53  26  35 E3        30.01S
$$

MTZ009-010-012-014-046-048-049-054-270700-
EAST SLOPES AND CENTRAL MONTANA

CITY           SKY/WX    TMP DP  RH WIND       PRES   REMARKS
CUT BANK       MOCLDY    54  40  59 SE7       29.88F
GREAT FALLS    PTCLDY    54  38  54 S7        29.92F
HELENA         PTCLDY    58  36  43 CALM      29.95S
CHOTEAU          N/A     57  39  51 SW6       29.93F
CONRAD           N/A     53  45  74 S5        29.93F
$$

MTZ011-013-016-021-045-047-050-051-270700-
NORTH CENTRAL MONTANA

CITY           SKY/WX    TMP DP  RH WIND       PRES   REMARKS
HAVRE          CLEAR     54  44  69 NE3       29.88F
LEWISTOWN      MOCLDY    52  45  77 SE7       29.98F
N BAR RANCH    CLOUDY    50  43  76 NW6       30.03F
CHINOOK          N/A     54  46  76 E6        29.90F
$$

MTZ017>020-022>027-061-062-270700-
NORTHEAST MONTANA

CITY           SKY/WX    TMP DP  RH WIND       PRES   REMARKS
GLASGOW        CLEAR     52  43  71 VRB7      29.93F
JORDAN           N/A     47  43  86 CALM      29.96F
SIDNEY         PTCLDY    54  46  74 W9        29.95S
WOLF POINT     CLEAR     48  43  82 CALM      29.95S
POPLAR           N/A     52  45  76 CALM      29.95F
SCOBEY           N/A     43  35  73 CALM      29.94S
$$

MTZ028>42-056>058-270700-
SOUTHCENTRAL AND SOUTHEAST MONTANA

CITY           SKY/WX    TMP DP  RH WIND       PRES   REMARKS
BILLINGS       PTCLDY    57  40  52 CALM      29.98F
LIVINGSTON     CLEAR     50  37  61 SE5       30.01S
MILES CITY     PTCLDY    60  43  53 SE5       29.97F
EKALAKA          N/A     52  46  79 E8        29.97F
FORSYTH          N/A     61  43  51 E5        29.97S
LAUREL           N/A     54  37  52 CALM      29.98S
ROUNDUP          N/A     53  39  59 NW1       29.90F
$$

REGIONAL REPORTS...DAKOTAS

CITY           SKY/WX    TMP DP  RH WIND       PRES   REMARKS
WILLISTON      PTCLDY    54  45  71 CALM      29.94F
MINOT            N/A     59  53  80 S8        29.92S
DICKINSON      CLOUDY    52  46  80 W9        29.98R
CROSBY           N/A     48  48 100 SW6       29.95F
WATFORD CITY     N/A     54  52  94 CALM      29.95S
BISMARCK       PTCLDY    54  51  90 S5        30.00S
GRAND FORKS      N/A     55  51  86 S8        30.01S
FARGO          LGT RAIN  63  56  78 SE6       30.03F
BUFFALO SD       N/A     52  49  89 SW7       29.94F
RAPID CITY     CLOUDY    58  56  93 NW17      30.07R
$$

REGIONAL REPORTS...WYOMING/IDAHO/WASHINGTON

CITY           SKY/WX    TMP DP  RH WIND       PRES   REMARKS
GILLETTE       MOCLDY    55  46  71 SE9       30.04F
SHERIDAN       CLOUDY    55  45  68 CALM      30.02S
BUFFALO WY     MOCLDY    56  40  55 SW5       30.08F
CODY           CLEAR     54  43  66 SW8       30.05S
YELLOWSTONE LA   N/A     42  31  64 NW5       30.19F
IDAHO FALLS    CLEAR     54  33  45 SW6       30.02S
SALMON         PTCLDY    54  39  58 CALM      29.98R
BOISE          PTCLDY    67  31  26 SE12      29.91S
SPOKANE        CLOUDY    73  38  27 SW10      29.83F
$$

REGIONAL REPORTS...ALBERTA

CITY           SKY/WX    TMP DP  RH WIND       PRES   REMARKS
EDMONTON       LGT RAIN  59  54  82 S3        29.71F
CALGARY        CLOUDY    59  46  63 S7        29.77F
LETHBRIDGE     MOCLDY    59  43  55 S17       29.79F
MEDICINE HAT   PTCLDY    54  46  76 E3        29.82F
$$

REGIONAL REPORTS...SASKATCHEWAN

CITY           SKY/WX    TMP DP  RH WIND       PRES   REMARKS
SWIFT CURRENT  CLEAR     48  45  87 S7        29.89F
REGINA         CLEAR     48  46  93 W8        29.89F
SASKATOON      CLEAR     50  50 100 S6        29.87F
$$



USA.gov is the U.S. government's official web portal to all federal, state and local government web resources and services.